Location: Stamford Observatory
(41.1241°N, 73.5498°W)
Time: 17:08:01
(UTC-04:00)

Daily predictions for brighter satellites

Satellite Brightness Start Highest point End
(mag) Time Altitude Azimuth Time Altitude Azimuth Time Altitude Azimuth
Cosmos 1606 3.6 20:41:51 10° NNE 20:45:25 32° ENE 20:48:57 10° SE
COSMOS 2487 4.0 20:43:13 10° N 20:46:08 22° ENE 20:49:00 10° ESE
Meteor 1-27 Rocket 4.1 20:43:45 10° N 20:49:05 45° ENE 20:54:20 10° SSE
ERS-1 Rocket 3.2 20:44:43 10° SSE 20:49:38 58° ENE 20:54:35 10° N
ALOS 3.0 20:45:23 10° S 20:49:58 56° W 20:54:35 10° NNW
Cosmos 1892 3.3 20:47:17 10° SSW 20:51:05 62° W 20:54:57 10° N
Cosmos 407 Rocket 3.6 20:46:44 10° NNW 20:52:02 73° ENE 20:57:20 10° SSE
SJ-11-01 4.4 20:49:55 10° SSE 20:54:36 65° ENE 20:59:19 10° N
Okean 3 4.4 20:57:08 10° NNE 21:00:59 31° ENE 21:04:35 11° SE
Cosmos 2074 Rocket 4.3 20:54:45 10° SSW 21:01:01 74° W 21:07:18 10° N
H-2A R/B 4.2 21:00:29 10° SSW 21:03:56 37° W 21:07:25 10° NNW
Cosmos 1452 Rocket 3.5 20:59:03 10° S 21:04:13 62° ESE 21:09:27 10° NNE
Cosmos 1782 2.9 21:00:40 10° N 21:04:43 83° W 21:08:45 10° S
H-2A R/B 4.2 21:03:32 10° ENE 21:05:08 11° ENE 21:06:43 10° NE
Cosmos 1674 Rocket 3.7 21:02:18 10° N 21:06:47 80° W 21:11:12 10° S
Cosmos 1190 Rocket 4.4 21:02:30 10° NNW 21:07:40 66° WSW 21:12:48 10° S
ATLAS 5 CENTAUR R/B 3.5 21:03:42 10° NW 21:09:22 41° WSW 21:15:21 10° S
USA 186 3.9 21:08:43 10° SSW 21:11:26 26° W 21:14:16 10° NW
Okean 2 Rocket 3.9 21:08:07 10° SSE 21:12:03 32° E 21:15:58 10° NNE
Atlas Centaur 2 3.2 21:12:09 10° SW 21:13:45 12° S 21:15:19 10° SSE
CENTAUR R/B 4.3 21:08:57 10° NW 21:16:11 39° WSW 21:23:42 10° S
OAO 3 Rocket 4.4 21:13:43 10° SSW 21:17:41 24° SSE 21:20:23 16° ESE
Nadezhda 3 Rocket 4.1 21:11:44 10° N 21:18:07 72° E 21:24:28 10° SSE
Terra 4.0 21:19:07 10° ENE 21:20:21 11° ENE 21:21:34 10° NE
Cosmos 1939 Rocket 2.8 21:17:05 10° SSE 21:20:57 89° W 21:24:55 10° NNW
Cosmos 1242 Rocket 3.5 21:18:28 10° N 21:21:48 32° ENE 21:23:49 19° SE
Cosmos 1782 Rocket 3.8 21:18:27 10° S 21:22:46 52° E 21:27:08 10° NNE
Cosmos 1184 Rocket 3.0 21:19:44 10° S 21:22:57 51° E 21:26:14 10° NNE
YAOGAN 6 3.5 21:21:31 18° ESE 21:23:26 31° ENE 21:26:34 10° N
Sich 1 Rocket 4.0 21:19:05 10° SSW 21:23:39 69° W 21:28:14 10° N
ISS -3.2 21:20:55 10° WSW 21:24:10 75° NW 21:27:26 10° NE
Cosmos 1238 Rocket 2.6 21:21:45 10° N 21:25:02 63° E 21:28:10 15° SSE
Cosmos 1408 2.5 21:21:40 10° S 21:25:18 69° E 21:28:56 10° NNE
SPOT 5 3.2 21:25:17 13° SSE 21:29:54 67° ENE 21:35:14 10° N
DNEPR-1 R/B 4.1 21:26:29 10° NNW 21:31:52 58° NE 21:34:51 21° SE
Cosmos 1833 Rocket 3.9 21:27:31 10° N 21:32:21 29° NE 21:35:46 16° ESE
Cosmos 1825 2.2 21:32:08 10° S 21:35:56 83° W 21:39:47 10° N
MetOp-A 4.2 21:31:45 16° SSE 21:35:59 65° ENE 21:41:18 10° N
Cosmos 2278 Rocket 2.2 21:30:19 10° SSW 21:36:00 90° ESE 21:41:43 10° NNE
Cosmos 1850 Rocket 4.4 21:31:22 10° N 21:36:34 52° ENE 21:39:56 21° SE
Cosmos 1844 Rocket 3.9 21:31:13 10° SW 21:36:36 45° WNW 21:42:01 10° NNE
Cosmos 1975 Rocket 3.0 21:33:31 10° N 21:37:50 69° E 21:40:50 19° SSE
Cosmos 676 Rocket 4.5 21:33:24 10° NNW 21:38:31 59° WSW 21:43:24 11° S
Cosmos 2084 4.0 21:35:11 10° SW 21:38:57 52° NW 21:42:44 10° NNE
Cosmos 1174 4.5 21:36:47 10° NW 21:39:40 33° WSW 21:41:30 17° S
USA 229 DEB 4.4 21:34:17 10° NNW 21:41:06 46° NE 21:46:06 19° ESE
USA 229 4.4 21:34:24 10° NNW 21:41:12 46° NE 21:46:12 19° ESE
BREEZE-M DEB (TANK) 4.4 21:40:44 10° WSW 21:42:27 17° SSW 21:43:47 14° S
Cosmos 1954 Rocket 4.2 21:37:20 10° NNW 21:42:32 71° WSW 21:46:48 15° S
Cosmos 2341 Rocket 4.0 21:38:42 10° S 21:45:01 87° W 21:51:19 10° N
Cosmos 1378 Rocket 4.1 21:44:16 10° NNW 21:48:29 55° W 21:52:23 12° S
COS B Rocket 3.9 21:44:36 10° N 21:48:32 54° W 21:51:57 11° SSW
Intercosmos 25 2.9 21:47:58 24° S 21:49:54 62° E 21:53:02 10° NNE
SL-8 Rocket 4.0 21:49:49 13° S 21:55:26 68° E 22:01:38 10° NNE
Cosmos 2082 Rocket 2.5 21:50:28 10° NNW 21:56:04 54° ENE 21:58:58 27° SE
Cosmos 1741 Rocket 3.9 21:52:19 10° NNW 21:57:34 76° ENE 22:00:22 28° SSE
Meteor 1-14 Rocket 4.2 21:53:53 17° S 21:58:16 63° E 22:03:48 10° NNE
Timation 2 Rocket 3.8 21:54:38 10° NNW 22:00:39 87° WSW 22:04:13 26° SSE
Cosmos 1812 4.1 22:00:45 10° NNE 22:03:56 24° ENE 22:04:10 24° E
USA 245 3.0 22:05:04 45° SSE 22:06:04 83° ENE 22:10:12 10° N
GPS 2-05 Rocket1 3.8 22:04:23 10° WSW 22:07:26 33° SSW 22:07:26 33° SSW
Cosmos 1110 Rocket 4.5 22:10:41 34° SE 22:11:55 39° ESE 22:16:44 10° NE
Cosmos 2297 3.7 22:06:34 10° SSW 22:12:16 90° SSE 22:18:03 10° NNE
Envisat 4.4 22:09:17 10° SSW 22:13:51 33° W 22:18:27 10° NNW
H-2A R/B 3.9 22:12:33 10° SSW 22:16:12 26° W 22:19:47 10° NW
Cosmos 2151 Rocket 3.5 22:16:23 36° S 22:18:12 76° E 22:22:44 10° N
IGS 5A 4.5 22:17:59 30° E 22:18:28 31° ENE 22:22:08 10° N
NOAA 11 4.1 22:15:50 31° SSE 22:18:36 89° ENE 22:24:09 10° NNW
CZ-3C R/B 4.1 22:10:47 10° WSW 22:21:35 17° SSW 22:23:56 16° S
CZ-4 R/B 3.6 22:17:02 10° NNE 22:21:43 73° ESE 22:23:29 37° S
APEX 4.4 22:19:18 10° SW 22:23:10 52° WNW 22:28:15 10° NNE
Cosmos 614 Rocket 4.1 22:19:39 10° NNW 22:24:43 66° WSW 22:26:48 35° S
Cosmos 864 Rocket 4.4 22:21:57 26° S 22:25:32 79° E 22:31:43 10° N
BREEZE-M DEB (TANK) 4.3 22:31:47 10° NW 22:33:30 18° N 22:36:09 10° ENE
Cosmos 1300 Rocket 4.0 22:33:36 44° E 22:33:36 44° E 22:37:48 10° NNE
Gbstr 26 Del rocket 4.2 22:29:23 10° NW 22:34:11 40° NNE 22:35:56 28° ENE
Cosmos 2366 rocket 4.0 22:32:20 23° SSW 22:36:28 81° W 22:42:51 10° N
Okean 1 Rocket 3.6 22:38:39 43° E 22:38:39 43° E 22:42:40 10° NNE
USA 234 3.4 22:34:18 10° ENE 22:40:35 47° SE 22:43:02 33° S
CZ-4C R/B 3.2 22:41:21 79° SSE 22:41:36 89° ENE 22:45:44 10° NNW
Landsat 7 3.7 22:40:32 54° S 22:41:38 88° WSW 22:46:25 10° NNW
Cosmos 2369 Rocket 3.8 22:45:04 20° E 22:45:04 20° E 22:47:48 10° NE
H-2A R/B 2.0 22:42:13 49° SSE 22:43:42 81° ENE 22:49:01 10° N
CZ-4B R/B 4.3 22:41:59 10° N 22:46:44 48° WNW 22:50:13 17° SW
ARGOS 3.8 22:46:31 30° SSW 22:48:49 48° W 22:54:00 10° NNW
Timation 1 Rocket 4.3 22:46:57 26° SSW 22:50:34 90° ESE 22:56:37 10° NNE
SL-08 RB Rocket 4.4 22:49:27 37° SW 22:50:44 48° W 22:55:14 10° NNW
Okean 1-7 Rocket 3.8 22:47:04 10° N 22:51:25 54° ENE 22:51:25 54° ENE
Terra 1.7 22:56:47 70° S 22:57:20 87° WSW 23:02:08 10° NNW
ISS -0.4 22:58:41 10° WNW 23:01:02 18° NNW 23:03:22 10° NNE
Meteor 1-20 Rocket 4.3 23:01:01 39° SSW 23:03:06 70° W 23:08:38 10° N
Cosmos 1302 Rocket 3.9 23:06:46 65° ESE 23:06:46 65° ESE 23:12:00 10° NNE
Spot 4 3.7 23:11:30 79° SSW 23:11:46 84° WSW 23:16:39 10° NNW
Cosmos 1000 Rocket 4.4 23:05:41 10° N 23:11:57 73° E 23:13:07 59° SE
CARTOSAT-1 4.1 23:15:43 50° W 23:15:43 50° W 23:19:55 10° NNW
Cosmos 1943 Rocket 4.3 23:18:11 13° ENE 23:18:11 13° ENE 23:19:20 10° ENE
Cosmos 1833 Rocket 3.4 23:11:07 10° NW 23:16:24 42° WSW 23:17:28 38° SW
Cosmos 2239 Rocket 4.4 23:16:18 60° SE 23:17:17 69° E 23:23:34 10° NNE
Okean 1 4.1 23:14:59 10° NNW 23:18:36 46° WNW 23:18:36 46° WNW
Spot 2 4.3 23:15:52 10° NNE 23:19:31 63° N 23:19:31 63° N
Lacrosse 5 2.0 23:25:04 65° ENE 23:25:04 65° ENE 23:29:27 10° NE
USA 229 DEB 4.5 23:25:27 10° NW 23:32:00 41° WSW 23:33:32 36° SW
USA 229 4.4 23:25:33 10° NW 23:32:07 41° WSW 23:33:38 37° SW
Iridium 4 Rocket 3.7 23:28:51 10° N 23:34:47 80° E 23:35:10 76° SE
ASTEX 1 3.9 23:32:56 10° N 23:37:44 52° W 23:38:12 50° W
Cosmos 2082 Rocket 3.9 23:35:31 10° NW 23:39:41 21° W 23:40:49 20° WSW
Cosmos 1892 Rocket 4.4 23:38:22 10° N 23:41:36 45° NNE 23:41:36 45° NNE
Cosmos 1503 Rocket 4.0 23:41:30 10° NNW 23:46:27 77° NNE 23:46:27 77° NNE
Meteor 2-4 Rocket 3.6 23:42:43 10° N 23:48:06 83° NE 23:48:06 83° NE
NOSS 3-1 (A) 4.0 23:43:04 10° NW 23:50:43 86° NE 23:52:37 58° SE
Cosmos 1821 Rocket 4.1 23:52:03 58° SW 23:53:04 68° W 23:59:17 10° N
CZ-4B R/B 4.4 23:57:11 12° NNE 23:57:11 12° NNE 23:57:36 10° NNE
